Rickenbacker, OH

11:13 AM EDT on May 27, 2017 (GMT -0400)
Rickenbacker International

Weather History for KLCK - December, 2013

Change the Weather History Date:

Saturday, December 21, 2013

  Actual Average Record
Temperature  
Mean Temperature 62 °F -  
Max Temperature 67 °F 37 °F 67 °F (2013)
Min Temperature 56 °F 23 °F 10 °F (1996)
Degree Days  
Heating Degree Days 4    
Growing Degree Days 12 (Base 50)    
Moisture  
Dew Point 55 °F    
Average Humidity 84    
Maximum Humidity 88    
Minimum Humidity 68    
Precipitation  
Precipitation 0.00 in - - ()
Sea Level Pressure  
Sea Level Pressure 29.74 in    
Wind  
Wind Speed 12 mph (South)    
Max Wind Speed 26 mph    
Max Gust Speed 38 mph    
Visibility 8 miles    
Events Rain    
Averages and records for this station are not official NWS values.
T = Trace of Precipitation, MM = Missing Value Source: NWS Daily Summary

Daily Weather History Graph

Daily Weather History Graph

Search for Another Location

Airport or City:

Trip Planner

Search our weather history database for the weather conditions in past years. The results will help you decide how hot, cold, wet, or windy it might be!

Date:

Astronomy

Dec. 21, 2013 Rise Set
Actual Time 7:49 AM EST 5:10 PM EST
Civil Twilight 7:19 AM EST 5:40 PM EST
Nautical Twilight 6:45 AM EST 6:14 PM EST
Astronomical Twilight 6:12 AM EST 6:47 PM EST
Moon 9:25 PM EST (12/21) 10:15 AM EST (12/21)
Length of Visible Light 10h 21m
Length of Day
9h 20m
Waning Gibbous, 84% of the Moon is Illuminated
Dec 21
Waning Gibbous
Dec 25
Last Quarter
Jan 1
New
Jan 7
First Quarter
Jan 15
Full

Hourly Weather History & Observations

Time (EST) Temp. Dew Point Humidity Pressure Visibility Wind Dir Wind Speed Gust Speed Precip Events Conditions
12:15 AM 59.0 °F 52.9 °F 80% 29.84 in 10.0 mi South 11.5 mph - N/A   Overcast
12:35 AM 59.2 °F 52.7 °F 79% 29.84 in 10.0 mi South 10.4 mph - N/A Rain Light Rain
12:55 AM 58.5 °F 52.2 °F 80% 29.84 in 10.0 mi South 12.7 mph - N/A   Overcast
1:15 AM 58.3 °F 52.0 °F 80% 29.83 in 10.0 mi South 10.4 mph - N/A   Overcast
1:35 AM 58.5 °F 52.2 °F 80% 29.82 in 10.0 mi South 12.7 mph - N/A Rain Light Rain
1:55 AM 58.8 °F 52.2 °F 79% 29.83 in 10.0 mi South 12.7 mph 19.6 mph N/A   Overcast
2:15 AM 59.0 °F 52.3 °F 79% 29.83 in 10.0 mi South 15.0 mph - N/A   Overcast
2:35 AM 59.5 °F 52.5 °F 78% 29.82 in 10.0 mi South 15.0 mph 21.9 mph N/A   Overcast
2:55 AM 59.9 °F 52.9 °F 78% 29.82 in 10.0 mi SSW 15.0 mph 19.6 mph N/A Rain Light Rain
3:15 AM 60.4 °F 53.1 °F 77% 29.82 in 10.0 mi SSW 15.0 mph 20.7 mph N/A   Overcast
3:35 AM 60.4 °F 53.2 °F 77% 29.82 in 7.0 mi SSW 15.0 mph - N/A Rain Rain
3:55 AM 59.4 °F 53.8 °F 82% 29.82 in 7.0 mi South 10.4 mph - N/A Rain Rain
4:15 AM 58.3 °F 53.4 °F 84% 29.82 in 10.0 mi South 10.4 mph - N/A   Drizzle
4:35 AM 57.7 °F 53.1 °F 84% 29.81 in 10.0 mi South 6.9 mph - N/A Rain Light Rain
4:55 AM 57.4 °F 52.7 °F 84% 29.81 in 10.0 mi South 8.1 mph - N/A Rain Light Rain
5:15 AM 57.2 °F 52.7 °F 85% 29.81 in 10.0 mi South 5.8 mph - N/A Rain Rain
5:35 AM 57.2 °F 52.7 °F 85% 29.81 in 5.0 mi South 9.2 mph - N/A Rain Rain
5:55 AM 57.2 °F 53.1 °F 86% 29.81 in 7.0 mi South 10.4 mph - N/A Rain Light Rain
6:15 AM 57.0 °F 52.9 °F 86% 29.81 in 7.0 mi South 10.4 mph - N/A Rain Rain
6:35 AM 56.7 °F 52.7 °F 87% 29.81 in 7.0 mi South 10.4 mph - N/A Rain Rain
6:55 AM 56.8 °F 53.1 °F 87% 29.81 in 10.0 mi South 10.4 mph - N/A   Drizzle
7:15 AM 57.2 °F 53.1 °F 86% 29.81 in 7.0 mi South 9.2 mph - N/A Rain Light Rain
7:35 AM 57.2 °F 53.2 °F 87% 29.80 in 7.0 mi South 10.4 mph - N/A Rain Rain
7:55 AM 57.6 °F 53.6 °F 87% 29.80 in 5.0 mi South 11.5 mph 17.3 mph N/A Rain Rain
8:15 AM 57.7 °F 54.0 °F 87% 29.80 in 5.0 mi South 10.4 mph - N/A Rain Rain
8:35 AM 57.7 °F 54.0 °F 87% 29.80 in 7.0 mi South 11.5 mph - N/A Rain Light Rain
8:55 AM 58.1 °F 54.3 °F 87% 29.78 in 7.0 mi South 11.5 mph - N/A Rain Light Rain
9:15 AM 58.3 °F 54.7 °F 88% 29.79 in 10.0 mi South 12.7 mph - N/A Rain Rain
9:35 AM 58.6 °F 54.7 °F 87% 29.80 in 5.0 mi South 11.5 mph - N/A Rain Rain
9:55 AM 58.8 °F 54.9 °F 87% 29.80 in 5.0 mi South 10.4 mph - N/A Rain Rain
10:15 AM 59.0 °F 55.0 °F 87% 29.80 in 5.0 mi South 12.7 mph 18.4 mph N/A Rain Rain
10:35 AM 59.0 °F 55.4 °F 88% 29.81 in 4.0 mi South 13.8 mph 20.7 mph N/A Rain Heavy Rain
10:55 AM 59.0 °F 55.4 °F 88% 29.81 in 5.0 mi South 15.0 mph 20.7 mph N/A Rain Rain
11:15 AM 59.0 °F 55.4 °F 88% 29.81 in 7.0 mi South 13.8 mph - N/A Rain Light Rain
11:35 AM 59.4 °F 55.6 °F 87% 29.79 in 7.0 mi South 13.8 mph - N/A Rain Light Rain
11:55 AM 59.4 °F 55.6 °F 87% 29.78 in 7.0 mi South 12.7 mph 19.6 mph N/A Rain Light Rain
12:15 PM 59.4 °F 55.6 °F 87% 29.76 in 5.0 mi South 13.8 mph - N/A Rain Rain
12:35 PM 59.4 °F 55.6 °F 87% 29.74 in 7.0 mi South 11.5 mph - N/A Rain Light Rain
12:55 PM 59.7 °F 55.9 °F 87% 29.73 in 7.0 mi South 13.8 mph - N/A Rain Light Rain
1:15 PM 59.9 °F 55.9 °F 87% 29.73 in 10.0 mi South 13.8 mph 19.6 mph N/A Rain Light Rain
1:35 PM 59.9 °F 55.8 °F 86% 29.73 in 5.0 mi South 12.7 mph 20.7 mph N/A Rain Rain
1:55 PM 59.9 °F 55.9 °F 87% 29.71 in 7.0 mi South 11.5 mph - N/A Rain Light Rain
2:15 PM 59.9 °F 55.9 °F 87% 29.70 in 5.0 mi South 13.8 mph 18.4 mph N/A Rain Light Rain
2:35 PM 59.9 °F 55.9 °F 87% 29.73 in 10.0 mi WNW 10.4 mph 16.1 mph N/A   Light Drizzle
2:55 PM 59.9 °F 55.8 °F 86% 29.73 in 4.0 mi South 8.1 mph - N/A Rain Rain
3:15 PM 59.9 °F 55.8 °F 86% 29.73 in 7.0 mi SSW 6.9 mph - N/A Rain Light Rain
3:35 PM 59.7 °F 55.8 °F 87% 29.73 in 10.0 mi South 6.9 mph - N/A   Overcast
3:55 PM 59.9 °F 55.9 °F 87% 29.72 in 10.0 mi SSE 6.9 mph - N/A   Overcast
4:15 PM 59.9 °F 55.8 °F 86% 29.72 in 10.0 mi South 10.4 mph - N/A   Mostly Cloudy
4:35 PM 60.4 °F 55.8 °F 85% 29.71 in 10.0 mi South 11.5 mph - N/A   Overcast
4:55 PM 61.0 °F 56.1 °F 84% 29.71 in 10.0 mi South 12.7 mph - N/A   Mostly Cloudy
5:15 PM 61.7 °F 56.3 °F 82% 29.71 in 10.0 mi South 12.7 mph - N/A Rain Light Rain
5:35 PM 61.9 °F 56.5 °F 82% 29.70 in 10.0 mi South 13.8 mph - N/A   Mostly Cloudy
5:55 PM 62.2 °F 57.0 °F 83% 29.72 in 10.0 mi South 13.8 mph - N/A   Overcast
6:15 PM 62.8 °F 57.2 °F 82% 29.71 in 10.0 mi South 13.8 mph - N/A   Mostly Cloudy
6:35 PM 62.8 °F 57.2 °F 82% 29.70 in 10.0 mi South 10.4 mph - N/A Rain Light Rain
6:55 PM 62.8 °F 57.4 °F 82% 29.71 in 10.0 mi South 12.7 mph - N/A   Overcast
7:15 PM 62.8 °F 57.4 °F 82% 29.70 in 10.0 mi South 11.5 mph - N/A Rain Rain
7:35 PM 62.4 °F 57.7 °F 85% 29.70 in 10.0 mi South 11.5 mph - N/A   Mostly Cloudy
7:55 PM 62.8 °F 58.3 °F 85% 29.68 in 10.0 mi SSE 17.3 mph 23.0 mph N/A   Mostly Cloudy
8:15 PM 63.1 °F 58.6 °F 85% 29.68 in 10.0 mi South 15.0 mph 20.7 mph N/A Rain Light Rain
8:35 PM 63.3 °F 59.0 °F 86% 29.65 in 10.0 mi South 16.1 mph - N/A Rain Light Rain
8:55 PM 63.5 °F 59.0 °F 85% 29.65 in 10.0 mi South 17.3 mph - N/A Rain Rain
9:15 PM 63.7 °F 59.4 °F 86% 29.61 in 10.0 mi SSE 19.6 mph 25.3 mph N/A Rain Light Rain
9:35 PM 63.9 °F 59.4 °F 85% 29.59 in 10.0 mi SSE 18.4 mph - N/A   Mostly Cloudy
9:55 PM 64.0 °F 59.5 °F 85% 29.57 in 10.0 mi SSE 17.3 mph 24.2 mph N/A   Clear
10:15 PM 64.4 °F 59.4 °F 84% 29.54 in 10.0 mi SSE 20.7 mph 29.9 mph N/A   Clear
10:35 PM 64.9 °F 59.0 °F 81% 29.52 in 10.0 mi South 21.9 mph 33.4 mph N/A   Mostly Cloudy
10:55 PM 65.8 °F 58.3 °F 77% 29.51 in 10.0 mi South 25.3 mph 35.7 mph N/A   Overcast
11:15 PM 66.6 °F 57.9 °F 74% 29.49 in 10.0 mi South 26.5 mph 38.0 mph N/A   Overcast
11:35 PM 67.3 °F 57.4 °F 70% 29.49 in 10.0 mi South 25.3 mph 33.4 mph N/A   Overcast
11:55 PM 67.8 °F 57.0 °F 68% 29.48 in 10.0 mi South 24.2 mph 31.1 mph N/A   Overcast